GW2817 Weather Reports


Display with metric or nautical units.
time (UTC)temp
F
wind
direction
speed
MPH
gust
MPH
rain 1hr
in
rain 24hr
in
rain mn
in
humidity
%
barometer
mb
20260507150125 58 90 0.0 2.0 0.00 0.00 0.00 28 1013.4
20260507145616 59 90 0.0 8.0 0.00 0.00 0.00 29 1013.2
20260507145106 57 180 0.0 8.0 0.00 0.00 0.00 31 1013.2
20260507144555 58 180 4.0 9.0 0.00 0.00 0.00 31 1013.2
20260507144316 57 135 4.0 9.0 0.00 0.00 0.00 32 1013.1
20260507143535 57 135 0.0 8.0 0.00 0.00 0.00 33 1013.2
20260507143255 56 158 0.0 8.0 0.00 0.00 0.00 34 1013.0
20260507142515 56 180 0.0 5.0 0.00 0.00 0.00 35 1013.1
20260507142236 56 135 0.0 4.0 0.00 0.00 0.00 35 1013.2
20260507141455 57 135 0.0 4.0 0.00 0.00 0.00 34 1013.2
20260507140944 57 180 0.0 2.0 0.00 0.00 0.00 35 1012.8
20260507140434 56 180 0.0 2.0 0.00 0.00 0.00 38 1013.0
20260507135924 54 180 0.0 6.0 0.00 0.00 0.00 38 1013.0
20260507135414 54 90 0.0 10.0 0.00 0.00 0.00 38 1013.1
20260507134911 54 180 1.0 10.0 0.00 0.00 0.00 39 1012.7
20260507134354 54 135 4.0 10.0 0.00 0.00 0.00 39 1012.6
20260507133844 54 158 2.0 8.0 0.00 0.00 0.00 37 1013.0
20260507133333 54 45 0.0 6.0 0.00 0.00 0.00 37 1013.0
20260507132824 54 135 0.0 4.0 0.00 0.00 0.00 36 1013.1
20260507132313 54 135 0.0 4.0 0.00 0.00 0.00 33 1013.1
20260507131253 57 180 0.0 4.0 0.00 0.00 0.00 28 1013.0
20260507130744 58 180 0.0 4.0 0.00 0.00 0.00 22 1012.6
20260507130232 58 225 0.0 6.0 0.00 0.00 0.00 23 1012.5
20260507125723 57 135 0.0 8.0 0.00 0.00 0.00 24 1012.5
20260507125212 58 45 2.0 8.0 0.00 0.00 0.00 24 1012.4
20260507124702 58 225 0.0 1.0 0.00 0.00 0.00 24 1012.7
20260507124152 58 180 0.0 1.0 0.00 0.00 0.00 22 1012.3
20260507123642 57 180 0.0 1.0 0.00 0.00 0.00 23 1012.5
20260507123403 55 45 0.0 4.0 0.00 0.00 0.00 23 1012.3
20260507122622 54 45 0.0 4.0 0.00 0.00 0.00 28 1012.2
20260507122111 52 0 0.0 5.0 0.00 0.00 0.00 31 1012.3
20260507121601 51 0 4.0 5.0 0.00 0.00 0.00 34 1012.6
20260507121051 50 0 1.0 5.0 0.00 0.00 0.00 37 1012.6
20260507120547 49 0 0.0 4.0 0.00 0.00 0.00 38 1012.6
20260507120030 48 0 0.0 4.0 0.00 0.00 0.00 41 1012.0
20260507115520 47 0 0.0 2.0 0.00 0.00 0.00 45 1011.8
20260507115010 45 225 0.0 3.0 0.00 0.00 0.00 47 1011.9
20260507114731 45 338 0.0 3.0 0.00 0.00 0.00 46 1012.3
20260507114221 45 338 0.0 6.0 0.00 0.00 0.00 48 1011.9
20260507113440 44 270 0.0 6.0 0.00 0.00 0.00 49 1011.7
20260507112930 44 180 0.0 2.0 0.00 0.00 0.00 49 1011.7
20260507112420 44 180 0.0 2.0 0.00 0.00 0.00 49 1011.5
20260507111910 44 270 0.0 2.0 0.00 0.00 0.00 49 1011.1
20260507111401 43 270 0.0 2.0 0.00 0.00 0.00 50 1011.4
20260507110850 43 315 0.0 2.0 0.00 0.00 0.00 51 1011.2
20260507110343 43 225 0.0 2.0 0.00 0.00 0.00 53 1011.1
20260507105831 42 225 0.0 2.0 0.00 0.00 0.00 53 1011.1
20260507105319 42 90 0.0 1.0 0.00 0.00 0.00 52 1011.2
20260507104809 43 315 0.0 7.0 0.00 0.00 0.00 51 1010.5
20260507104259 44 225 0.0 7.0 0.00 0.00 0.00 51 1010.3
20260507103748 44 248 4.0 8.0 0.00 0.00 0.00 51 1010.3
20260507103238 45 225 4.0 9.0 0.00 0.00 0.00 51 1010.0
20260507102729 45 180 4.0 9.0 0.00 0.00 0.00 51 1010.0
20260507102219 44 203 2.0 7.0 0.00 0.00 0.00 51 1009.8
20260507101712 44 270 2.0 7.0 0.00 0.00 0.00 52 1009.9
20260507101429 44 315 0.0 8.0 0.00 0.00 0.00 53 1010.1
20260507100648 44 248 0.0 9.0 0.00 0.00 0.00 52 1009.7
20260507100138 46 293 1.0 9.0 0.00 0.00 0.00 49 1009.4
20260507095858 47 45 2.0 8.0 0.00 0.00 0.00 46 1009.1
20260507095118 46 45 2.0 12.0 0.00 0.00 0.00 48 1008.9
20260507094603 45 0 8.0 13.0 0.00 0.00 0.00 52 1008.9
20260507094057 45 315 5.0 15.0 0.00 0.00 0.00 52 1008.8
20260507093547 45 225 0.0 15.0 0.00 0.00 0.00 54 1008.9
20260507093041 43 0 11.0 14.0 0.00 0.00 0.00 58 1009.4
20260507092526 42 315 4.0 8.0 0.00 0.00 0.00 56 1009.0
20260507092017 42 270 3.0 8.0 0.00 0.00 0.00 54 1008.9
20260507091511 42 203 3.0 6.0 0.00 0.00 0.00 53 1008.6
20260507090956 43 180 0.0 3.0 0.00 0.00 0.00 52 1008.9
20260507090446 44 248 0.0 3.0 0.00 0.00 0.00 51 1008.9
20260507085936 44 225 0.0 4.0 0.00 0.00 0.00 51 1008.6
20260507085426 44 225 0.0 8.0 0.00 0.00 0.00 49 1009.0
20260507084916 45 203 0.0 8.0 0.00 0.00 0.00 45 1008.9
20260507084405 45 225 2.0 7.0 0.00 0.00 0.00 42 1008.8
20260507084126 45 225 0.0 3.0 0.00 0.00 0.00 32 1008.6
20260507083345 46 180 0.0 5.0 0.00 0.00 0.00 30 1008.6
20260507082835 47 270 0.0 8.0 0.00 0.00 0.00 32 1008.4
20260507082324 48 225 2.0 12.0 0.00 0.00 0.00 27 1008.1
20260507081815 50 180 8.0 12.0 0.00 0.00 0.00 21 1007.7
20260507081305 51 203 7.0 11.0 0.00 0.00 0.00 19 1007.4
20260507080755 51 0 2.0 9.0 0.00 0.00 0.00 19 1007.3
20260507080516 52 225 2.0 7.0 0.00 0.00 0.00 19 1006.9
20260507075733 54 315 0.0 12.0 0.00 0.00 0.00 18 1006.6
20260507075224 56 315 1.0 17.0 0.00 0.00 0.00 19 1006.1
20260507074945 57 0 1.0 18.0 0.00 0.00 0.00 20 1005.7
20260507074205 57 338 11.0 23.0 0.00 0.00 0.00 18 1005.3
20260507073653 57 315 11.0 23.0 0.00 0.00 0.00 18 1005.8
20260507073143 58 225 11.0 22.0 0.00 0.00 0.00 19 1005.6
20260507072634 56 315 9.0 23.0 0.00 0.00 0.00 19 1004.2
20260507072354 55 293 11.0 23.0 0.00 0.00 0.00 20 1004.8
20260507071614 55 45 16.0 30.0 0.00 0.00 0.00 19 1004.4
20260507071103 56 0 12.0 36.0 0.00 0.00 0.00 19 1004.8
20260507070823 57 0 20.0 36.0 0.00 0.00 0.00 20 1004.3
20260507070042 57 0 20.0 34.0 0.00 0.00 0.00 20 1004.4
20260507065533 57 338 15.0 32.0 0.00 0.00 0.00 19 1004.4
20260507065253 58 315 8.0 32.0 0.00 0.00 0.00 19 1004.9
20260507064512 58 315 15.0 31.0 0.00 0.00 0.00 19 1004.8
20260507064001 58 293 18.0 30.0 0.00 0.00 0.00 18 1004.6
20260507063452 58 293 13.0 26.0 0.00 0.00 0.00 19 1004.4
20260507062940 59 0 12.0 27.0 0.00 0.00 0.00 17 1004.6
20260507062431 58 315 10.0 30.0 0.00 0.00 0.00 18 1003.6
20260507061921 58 315 14.0 30.0 0.00 0.00 0.00 18 1004.0
20260507061411 57 270 11.0 30.0 0.00 0.00 0.00 18 1003.6
20260507060901 57 315 13.0 24.0 0.00 0.00 0.00 19 1003.6
20260507060351 57 315 9.0 25.0 0.00 0.00 0.00 20 1004.0
20260507055840 56 338 12.0 25.0 0.00 0.00 0.00 19 1004.2
20260507055330 57 315 13.0 27.0 0.00 0.00 0.00 20 1004.3
20260507054820 57 315 15.0 27.0 0.00 0.00 0.00 20 1004.4
20260507054310 55 315 16.0 23.0 0.00 0.00 0.00 20 1004.3
20260507053800 57 315 10.0 27.0 0.00 0.00 0.00 20 1004.6
20260507053250 57 0 11.0 27.0 0.00 0.00 0.00 19 1004.8
20260507052739 57 315 9.0 24.0 0.00 0.00 0.00 20 1004.8
20260507052230 57 315 11.0 24.0 0.00 0.00 0.00 19 1005.3
20260507051719 57 225 4.0 23.0 0.00 0.00 0.00 18 1005.1
20260507051440 57 225 6.0 27.0 0.00 0.00 0.00 20 1004.9
20260507050659 57 270 9.0 27.0 0.00 0.00 0.00 20 1005.0
20260507050149 57 180 13.0 27.0 0.00 0.00 0.00 20 1004.9
20260507045638 58 315 4.0 26.0 0.00 0.00 0.00 19 1004.9
20260507045129 58 315 8.0 26.0 0.00 0.00 0.00 19 1005.1
20260507044618 58 315 10.0 21.0 0.00 0.00 0.00 19 1004.9
20260507044338 58 315 5.0 21.0 0.00 0.00 0.00 19 1004.9
20260507043558 55 315 8.0 23.0 0.00 0.00 0.00 22 1004.0
20260507043328 55 225 11.0 27.0 0.00 0.00 0.00 22 1004.4
20260507042538 55 0 14.0 27.0 0.00 0.00 0.00 22 1004.0
20260507042027 54 315 15.0 29.0 0.00 0.00 0.00 20 1004.1
20260507041527 54 203 16.0 29.0 0.00 0.00 0.00 23 1004.2
20260507041007 54 180 9.0 32.0 0.00 0.00 0.00 22 1004.2
20260507040457 54 315 16.0 32.0 0.00 0.00 0.00 26 1003.5
20260507035948 53 225 13.0 29.0 0.00 0.00 0.00 30 1003.4
20260507035437 52 315 14.0 32.0 0.00 0.00 0.00 35 1003.4
20260507034927 52 225 15.0 32.0 0.00 0.00 0.00 35 1003.3
20260507034429 52 315 22.0 34.0 0.00 0.00 0.00 39 1003.5
20260507033907 52 225 12.0 34.0 0.00 0.00 0.00 39 1003.4
20260507033358 52 315 13.0 29.0 0.00 0.00 0.00 42 1003.2
20260507032846 53 315 13.0 29.0 0.00 0.00 0.00 42 1003.6
20260507032336 53 0 15.0 29.0 0.00 0.00 0.00 39 1003.3
20260507032057 53 315 18.0 26.0 0.00 0.00 0.00 39 1002.7
20260507031316 54 270 17.0 27.0 0.00 0.00 0.00 33 1002.4
20260507030806 54 270 9.0 27.0 0.00 0.00 0.00 34 1002.3
20260507030255 54 45 11.0 23.0 0.00 0.00 0.00 35 1003.0
20260507025745 54 315 8.0 28.0 0.00 0.00 0.00 33 1002.6
20260507025506 55 315 11.0 28.0 0.00 0.00 0.00 33 1002.4
20260507024725 55 293 12.0 28.0 0.00 0.00 0.00 33 1001.7
20260507024214 55 248 8.0 21.0 0.00 0.00 0.00 33 1002.4
20260507023705 54 338 8.0 22.0 0.00 0.00 0.00 33 1002.3
20260507023155 54 293 13.0 25.0 0.00 0.00 0.00 34 1002.6
20260507022644 54 315 11.0 25.0 0.00 0.00 0.00 34 1001.9
20260507022135 54 315 10.0 23.0 0.00 0.00 0.00 33 1002.6
20260507021624 55 315 9.0 23.0 0.00 0.00 0.00 34 1003.5
20260507021114 55 315 7.0 22.0 0.00 0.00 0.00 34 1003.4
20260507020604 54 293 12.0 22.0 0.00 0.00 0.00 38 1003.5
20260507020053 53 270 10.0 20.0 0.00 0.00 0.00 41 1003.4
20260507015550 53 315 11.0 30.0 0.00 0.00 0.00 45 1003.6
20260507015034 53 293 11.0 30.0 0.00 0.00 0.00 46 1003.2
20260507014524 52 270 18.0 31.0 0.00 0.00 0.00 47 1002.5
20260507014013 53 225 12.0 31.0 0.00 0.00 0.00 45 1002.6
20260507013503 54 248 12.0 31.0 0.00 0.00 0.00 41 1003.0
20260507012952 54 270 14.0 31.0 0.00 0.00 0.00 38 1003.2
20260507012442 55 315 20.0 30.0 0.00 0.00 0.00 38 1003.3
20260507011932 55 0 19.0 30.0 0.00 0.00 0.00 36 1003.2
20260507011652 56 248 10.0 22.0 0.00 0.00 0.00 34 1003.3
20260507010912 57 293 9.0 21.0 0.00 0.00 0.00 33 1003.0
20260507010401 58 225 11.0 23.0 0.00 0.00 0.00 26 1003.2
20260507005852 59 315 14.0 23.0 0.00 0.00 0.00 23 1002.4
20260507005341 60 90 7.0 18.0 0.00 0.00 0.00 21 1001.9
20260507004832 61 270 13.0 18.0 0.00 0.00 0.00 19 1002.1
20260507004321 60 315 8.0 17.0 0.00 0.00 0.00 22 1001.6
20260507003810 59 0 4.0 17.0 0.00 0.00 0.00 24 1001.6
20260507002751 59 225 9.0 21.0 0.00 0.00 0.00 25 1001.3
20260507002240 59 225 9.0 20.0 0.00 0.00 0.00 24 1001.4
20260507001730 59 315 9.0 21.0 0.00 0.00 0.00 24 1001.1
20260507001452 59 225 7.0 21.0 0.00 0.00 0.00 24 1001.5
20260507000941 60 180 11.0 21.0 0.00 0.00 0.00 23 1001.3
20260507000200 61 225 8.0 22.0 0.00 0.00 0.00 20 1000.9
20260506235649 61 270 9.0 22.0 0.00 0.00 0.00 20 1000.9
20260506235141 60 225 8.0 18.0 0.00 0.00 0.00 22 1000.8
20260506234630 61 293 11.0 17.0 0.00 0.00 0.00 21 1000.7
20260506234119 61 225 4.0 21.0 0.00 0.00 0.00 20 1000.4
20260506233609 62 248 5.0 22.0 0.00 0.00 0.00 20 1000.5
20260506233059 62 315 5.0 22.0 0.00 0.00 0.00 19 1000.5
20260506232548 61 225 11.0 20.0 0.00 0.00 0.00 19 1000.1
20260506231529 60 338 9.0 21.0 0.00 0.00 0.00 23 1000.1
20260506231018 60 270 11.0 21.0 0.00 0.00 0.00 23 1000.2
20260506230509 61 293 4.0 19.0 0.00 0.00 0.00 21 1000.5
20260506225957 62 203 11.0 19.0 0.00 0.00 0.00 20 1000.8
20260506225448 62 315 4.0 10.0 0.00 0.00 0.00 21 1000.4
20260506224938 62 248 5.0 11.0 0.00 0.00 0.00 21 1000.2
20260506224427 62 270 1.0 17.0 0.00 0.00 0.00 21 1000.1
20260506223917 63 225 8.0 17.0 0.00 0.00 0.00 20 1000.1
20260506223408 63 225 8.0 17.0 0.00 0.00 0.00 20 1000.1
20260506223129 63 225 4.0 18.0 0.00 0.00 0.00 19 999.8
20260506222619 62 225 13.0 18.0 0.00 0.00 0.00 20 999.9
20260506221837 62 270 4.0 14.0 0.00 0.00 0.00 21 999.7
20260506221327 62 315 2.0 11.0 0.00 0.00 0.00 21 999.6
20260506220816 62 0 2.0 15.0 0.00 0.00 0.00 22 999.7
20260506220306 62 270 5.0 15.0 0.00 0.00 0.00 22 999.6
20260506215757 61 315 4.0 12.0 0.00 0.00 0.00 23 999.4
20260506215246 61 225 5.0 15.0 0.00 0.00 0.00 24 999.2
20260506215007 61 180 7.0 19.0 0.00 0.00 0.00 24 998.6
20260506214226 62 270 8.0 19.0 0.00 0.00 0.00 23 999.2
20260506213716 62 315 8.0 15.0 0.00 0.00 0.00 24 999.3
20260506213205 62 315 9.0 15.0 0.00 0.00 0.00 31 999.1
20260506212654 62 0 0.0 4.0 0.00 0.00 0.00 58 999.2
20260506212145 62 0 0.0 4.0 0.00 0.00 0.00 58 999.1
20260506211635 62 315 1.0 4.0 0.00 0.00 0.00 58 999.6
20260506211126 62 315 0.0 0.0 0.00 0.00 0.00 58 999.7
20260506210616 62 315 0.0 0.0 0.00 0.00 0.00 57 999.6
20260506210336 62 338 0.0 2.0 0.00 0.00 0.00 56 999.6
20260506205554 63 0 0.0 2.0 0.00 0.00 0.00 55 999.4
20260506205044 63 0 0.0 1.0 0.00 0.00 0.00 53 999.4
20260506204533 64 0 0.0 0.0 0.00 0.00 0.00 52 999.2
20260506204024 64 0 0.0 1.0 0.00 0.00 0.00 52 999.3
20260506203514 64 0 0.0 2.0 0.00 0.00 0.00 52 998.9
20260506202453 64 315 0.0 3.0 0.00 0.00 0.00 53 999.2
20260506201943 65 338 1.0 3.0 0.00 0.00 0.00 53 999.4
20260506201434 65 0 0.0 1.0 0.00 0.00 0.00 52 999.0
20260506200924 65 180 0.0 1.0 0.00 0.00 0.00 52 998.5
20260506200414 65 180 0.0 2.0 0.00 0.00 0.00 52 999.4
20260506195903 65 45 0.0 2.0 0.00 0.00 0.00 52 998.9
20260506195353 66 90 0.0 2.0 0.00 0.00 0.00 50 998.6
20260506194842 66 180 0.0 2.0 0.00 0.00 0.00 50 998.8
20260506194332 66 113 0.0 2.0 0.00 0.00 0.00 49 999.0
20260506194053 66 113 0.0 1.0 0.00 0.00 0.00 51 999.1
20260506193543 66 0 0.0 0.0 0.00 0.00 0.00 51 999.1
20260506192802 65 23 0.0 2.0 0.00 0.00 0.00 52 999.4
20260506192252 66 180 0.0 8.0 0.00 0.00 0.00 52 999.1
20260506191741 66 90 0.0 8.0 0.00 0.00 0.00 52 998.9
20260506191232 66 135 0.0 7.0 0.00 0.00 0.00 51 998.4
20260506190721 66 135 1.0 4.0 0.00 0.00 0.00 51 999.1
20260506190450 66 270 0.0 2.0 0.00 0.00 0.00 52 998.8
20260506185932 66 90 0.0 3.0 0.00 0.00 0.00 52 998.6
20260506185151 66 90 0.0 3.0 0.00 0.00 0.00 51 999.1
20260506184912 67 0 0.0 2.0 0.00 0.00 0.00 51 998.8
20260506184403 67 113 0.0 6.0 0.00 0.00 0.00 51 998.3
20260506183620 67 135 0.0 7.0 0.00 0.00 0.00 49 998.5
20260506183110 67 180 4.0 7.0 0.00 0.00 0.00 46 998.3
20260506182601 68 135 0.0 2.0 0.00 0.00 0.00 44 998.1
20260506182049 68 135 0.0 1.0 0.00 0.00 0.00 42 998.0
20260506181539 68 0 0.0 2.0 0.00 0.00 0.00 43 998.3
20260506181030 68 135 0.0 2.0 0.00 0.00 0.00 43 998.3
20260506180519 69 90 0.0 2.0 0.00 0.00 0.00 44 997.9
20260506180009 69 180 0.0 5.0 0.00 0.00 0.00 45 998.4
20260506175500 69 225 0.0 8.0 0.00 0.00 0.00 44 998.8
20260506174950 70 180 3.0 8.0 0.00 0.00 0.00 44 998.2
20260506174439 70 90 0.0 4.0 0.00 0.00 0.00 45 998.4
20260506173929 70 225 0.0 1.0 0.00 0.00 0.00 46 999.0
20260506173419 69 0 0.0 4.0 0.00 0.00 0.00 48 999.3
20260506172908 69 135 2.0 4.0 0.00 0.00 0.00 47 998.6
20260506172358 68 135 0.0 4.0 0.00 0.00 0.00 50 998.9
20260506171849 68 113 1.0 5.0 0.00 0.00 0.00 50 999.1
20260506171059 68 45 0.0 5.0 0.00 0.00 0.00 50 999.2
20260506170318 69 180 0.0 1.0 0.00 0.00 0.00 49 999.6
20260506170039 69 135 0.0 2.0 0.00 0.00 0.00 49 999.7
20260506165257 69 135 0.0 2.0 0.00 0.00 0.00 49 999.4
20260506165019 68 113 0.0 4.0 0.00 0.00 0.00 50 999.1
20260506164508 67 90 0.0 6.0 0.00 0.00 0.00 51 999.8
20260506163727 67 90 1.0 6.0 0.00 0.00 0.00 51 1000.0
20260506163218 69 45 0.0 2.0 0.00 0.00 0.00 48 1000.4
20260506162708 69 90 0.0 2.0 0.00 0.00 0.00 48 1000.0
20260506162429 70 45 0.0 2.0 0.00 0.00 0.00 47 1000.1
20260506161647 70 203 0.0 6.0 0.00 0.00 0.00 44 1000.4
20260506161136 70 180 0.0 6.0 0.00 0.00 0.00 44 1000.0
20260506160626 70 0 0.0 4.0 0.00 0.00 0.00 47 1000.5
20260506160347 69 270 0.0 4.0 0.00 0.00 0.00 47 1000.5
20260506155606 69 90 0.0 2.0 0.00 0.00 0.00 49 1000.4
20260506155055 68 0 0.0 2.0 0.00 0.00 0.00 49 1001.3
20260506154816 69 90 0.0 4.0 0.00 0.00 0.00 48 1001.0
20260506154034 68 0 0.0 4.0 0.00 0.00 0.00 50 1001.5
20260506153525 68 45 1.0 4.0 0.00 0.00 0.00 51 1001.0
20260506153247 67 135 0.0 2.0 0.00 0.00 0.00 51 1001.7
20260506151955 69 90 0.0 1.0 0.00 0.00 0.00 47 1001.6
20260506151445 69 23 0.0 1.0 0.00 0.00 0.00 47 1002.2
20260506150939 69 0 0.0 2.0 0.00 0.00 0.00 48 1002.2